DW7214 Weather Reports


time (UTC)temp
C
wind
direction
speed
KPH
gust
KPH
rain 1hr
cm
rain 24hr
cm
rain mn
cm
humidity
%
barometer
mb
20260831023014 21 38 4.8 19.3 0.00 0.00 0.00 55 1016.5
20260831021508 21 293 3.2 19.3 0.00 0.00 0.00 53 1016.7
20260831020010 22 346 6.4 14.5 0.00 0.00 0.00 51 1016.6
20260831014515 23 333 6.4 16.1 0.00 0.00 0.00 50 1016.6
20260831013024 23 244 4.8 14.5 0.00 0.00 0.00 49 1016.6
20260831011515 23 279 4.8 17.7 0.00 0.00 0.00 48 1016.6
20260831010015 23 270 3.2 16.1 0.00 0.00 0.00 48 1016.6
20260831004516 23 304 6.4 16.1 0.00 0.00 0.00 48 1017.1
20260831003017 23 286 4.8 14.5 0.00 0.00 0.00 47 1017.2
20260831001517 23 343 6.4 14.5 0.00 0.00 0.00 47 1017.2
20260831000014 23 286 6.4 12.9 0.00 0.00 0.00 46 1017.3
20260830234516 23 5 6.4 16.1 0.00 0.00 0.00 46 1017.4
20260830233021 23 324 6.4 16.1 0.00 0.00 0.00 46 1017.4
20260830231517 23 360 6.4 16.1 0.00 0.00 0.00 47 1017.7
20260830230021 23 341 4.8 16.1 0.00 0.00 0.00 47 1017.8
20260830224514 23 346 9.7 14.5 0.00 0.00 0.00 46 1018.1
20260830223018 23 352 4.8 16.1 0.00 0.00 0.00 48 1018.4
20260830221519 22 351 4.8 12.9 0.00 0.00 0.00 48 1018.7
20260830220021 22 352 8.0 19.3 0.00 0.00 0.00 49 1018.8
20260830214509 22 352 9.7 17.7 0.00 0.00 0.00 47 1019.0
20260830213019 22 243 1.6 17.7 0.00 0.00 0.00 51 1019.1
20260830211524 21 14 4.8 14.5 0.00 0.00 0.00 50 1019.4
20260830210031 21 352 9.7 17.7 0.00 0.00 0.00 50 1019.6
20260830204509 21 341 6.4 14.5 0.00 0.00 0.00 50 1019.8
20260830203014 21 360 6.4 11.3 0.00 0.00 0.00 53 1019.9
20260830201519 20 266 3.2 14.5 0.00 0.00 0.00 52 1020.2
20260830200028 20 40 0.0 14.5 0.00 0.00 0.00 54 1020.4
20260830194516 20 286 6.4 17.7 0.00 0.00 0.00 52 1020.5
20260830193009 20 34 4.8 17.7 0.00 0.00 0.00 56 1020.6
20260830191522 20 75 0.0 14.5 0.00 0.00 0.00 54 1020.8
20260830190026 19 9 3.2 12.9 0.00 0.00 0.00 55 1021.1
20260830184529 19 328 3.2 12.9 0.00 0.00 0.00 55 1021.3
20260830183008 19 336 1.6 14.5 0.00 0.00 0.00 56 1021.3
20260830181516 18 337 1.6 14.5 0.00 0.00 0.00 60 1021.3
20260830180022 17 360 6.4 12.9 0.00 0.00 0.00 59 1021.4
20260830174528 17 298 8.0 14.5 0.00 0.00 0.00 60 1021.4
20260830173028 17 360 3.2 12.9 0.00 0.00 0.00 62 1021.4
20260830171511 17 281 1.6 12.9 0.00 0.00 0.00 62 1021.4
20260830170024 16 352 1.6 4.8 0.00 0.00 0.00 68 1021.5
20260830164551 16 234 0.0 3.2 0.00 0.00 0.00 71 1021.4
20260830163032 15 330 0.0 3.2 0.00 0.00 0.00 72 1021.5
20260830161512 14 250 0.0 1.6 0.00 0.00 0.00 74 1021.6
20260830160019 13 18 0.0 1.6 0.00 0.00 0.00 77 1021.8
20260830154525 12 5 0.0 1.6 0.00 0.00 0.00 83 1021.8
20260830153032 11 23 0.0 0.0 0.00 0.00 0.00 85 1021.8
20260830151530 10 41 0.0 0.0 0.00 0.00 0.00 87 1022.0
20260830150015 8 78 0.0 0.0 0.00 0.00 0.00 90 1021.9
20260830144521 7 249 0.0 0.0 0.00 0.00 0.00 92 1022.0
20260830143032 7 255 0.0 1.6 0.00 0.00 0.00 93 1021.9
20260830141538 6 45 0.0 0.0 0.00 0.00 0.00 92 1021.9
20260830140030 6 46 0.0 0.0 0.00 0.00 0.00 92 1021.8
20260830134526 6 348 0.0 1.6 0.00 0.00 0.00 92 1021.8
20260830133027 6 251 0.0 0.0 0.00 0.00 0.00 92 1021.8
20260830131530 6 246 0.0 0.0 0.00 0.00 0.00 91 1021.8
20260830130050 6 246 0.0 0.0 0.00 0.00 0.00 91 1021.6
20260830124516 7 257 0.0 0.0 0.00 0.00 0.00 90 1021.5
20260830123026 7 270 0.0 0.0 0.00 0.00 0.00 90 1021.5
20260830121505 7 275 0.0 0.0 0.00 0.00 0.00 89 1021.5
20260830120008 8 309 0.0 3.2 0.00 0.00 0.00 89 1021.5
20260830114512 8 246 0.0 3.2 0.00 0.00 0.00 86 1021.5
20260830113019 8 250 1.6 6.4 0.00 0.00 0.00 89 1021.4
20260830111525 8 239 3.2 4.8 0.00 0.00 0.00 90 1021.4
20260830110010 8 248 0.0 3.2 0.00 0.00 0.00 90 1021.5
20260830104512 8 252 0.0 3.2 0.00 0.00 0.00 91 1021.6
20260830103016 7 234 0.0 0.0 0.00 0.00 0.00 89 1021.6
20260830101525 8 234 0.0 0.0 0.00 0.00 0.00 86 1021.6
20260830100028 8 237 1.6 3.2 0.00 0.00 0.00 90 1021.6
20260830094521 8 244 0.0 0.0 0.00 0.00 0.00 90 1021.6
20260830093016 8 240 0.0 3.2 0.00 0.00 0.00 90 1021.5
20260830091518 8 242 0.0 0.0 0.00 0.00 0.00 88 1021.6
20260830090027 8 242 0.0 0.0 0.00 0.00 0.00 86 1021.5
20260830084505 9 242 0.0 4.8 0.00 0.00 0.00 87 1021.5
20260830083012 8 239 1.6 4.8 0.00 0.00 0.00 88 1021.6
20260830081538 8 235 0.0 0.0 0.00 0.00 0.00 87 1021.6
20260830080027 9 235 0.0 0.0 0.00 0.00 0.00 85 1021.5
20260830074530 9 235 0.0 0.0 0.00 0.00 0.00 85 1021.4
20260830073007 9 229 0.0 3.2 0.00 0.00 0.00 86 1021.3
20260830071516 9 213 0.0 0.0 0.00 0.00 0.00 85 1021.4
20260830070028 10 213 0.0 0.0 0.00 0.00 0.00 85 1021.3
20260830064529 10 259 0.0 0.0 0.00 0.00 0.00 82 1021.4
20260830063037 10 259 0.0 0.0 0.00 0.00 0.00 83 1021.1
20260830061516 10 234 0.0 0.0 0.00 0.00 0.00 82 1021.0
20260830060022 10 233 0.0 0.0 0.00 0.00 0.00 82 1021.0
20260830054531 11 288 0.0 0.0 0.00 0.00 0.00 81 1021.1
20260830053028 11 236 0.0 0.0 0.00 0.00 0.00 80 1021.0
20260830051530 11 244 0.0 3.2 0.00 0.00 0.00 78 1021.1
20260830050018 12 242 0.0 3.2 0.00 0.00 0.00 77 1021.0
20260830044523 12 242 0.0 0.0 0.00 0.00 0.00 75 1021.0
20260830043028 13 246 0.0 0.0 0.00 0.00 0.00 72 1020.9
20260830041510 14 246 0.0 0.0 0.00 0.00 0.00 70 1020.9
20260830040015 15 245 0.0 0.0 0.00 0.00 0.00 68 1020.6
20260830034520 15 246 0.0 0.0 0.00 0.00 0.00 67 1020.5
20260830033028 16 245 0.0 0.0 0.00 0.00 0.00 63 1020.3
20260830031530 17 246 0.0 1.6 0.00 0.00 0.00 60 1020.2
20260830030012 17 258 0.0 9.7 0.00 0.00 0.00 59 1020.2
20260830024521 18 279 3.2 11.3 0.00 0.00 0.00 56 1020.3